Volver al catálogo

CZ-4B R/B

ActivoPO
NORAD 43656·ROCKET BODY·🇨🇳 China

Lanzado Oct 24, 2018 desde Taiyuan Satellite Launch Center

Loading…

Próximos Pases (próximas 24 horas)

TLE

ActualizadoSource: Space-Track

Época: Sep 14, 2026, 05:01 UTC

1 43656U 18081B   26257.20948058  .00000155  00000-0  63123-4 0  9990
2 43656  99.3643 182.2070 0204950  10.5679 349.9712 14.31891093412043

Sigue CZ-4B R/B en tiempo real con AllMySat

Download on the App Store